Location: Boiro
(42.6475°N, 8.8834°W)
Time: 00:00:20
(UTC+01:00)

A-11 Canister half - Pass Details

Date: 02 December 2021
Orbit: 1516 x 1684 km, 47.2° (Epoch: 18 January)

Event Time Altitude Azimuth Distance (km) Brightness Sun altitude
Rises 10:59:50 0° 263° (W) 4,806 11.3 17.2°
Reaches altitude 10° 11:02:56 10° 266° (W) 3,843 10.9 17.5°
Maximum altitude 11:12:48 71° 350° (N) 1,733 9.4 18.5°
Drops below altitude 10° 11:22:58 10° 75° (ENE) 3,945 11.4 19.5°
Sets 11:26:11 0° 78° (ENE) 4,938 11.9 19.8°
